Location: Béaulencourt
(50.0796°N, 2.8795°E)
Time: 18:00:05
(UTC+00:00)

Envisat - Pass Details

Date: 19 March 2026
Orbit: 761 x 762 km, 98.4° (Epoch: 14 April)

Event Time Altitude Azimuth Distance (km) Brightness Sun altitude
Rises 01:50:33 0° 21° (NNE) 3,237 7.2 -34.9°
Reaches altitude 10° 01:53:03 10° 30° (NNE) 2,306 6.3 -34.6°
Enters shadow 01:56:34 31° 69° (ENE) 1,309 4.5 -34.3°
